| time (UTC) | temp F | wind direction | speed knots | gust knots | rain 1hr in | rain 24hr in | rain mn in | humidity % | barometer mb |
| 20260502161207 | 63 | 325 | 4.3 | 7.0 | 0.00 | 0.00 | 0.00 | 59 | 1012.2 |
| 20260502160207 | 64 | 332 | 5.2 | 7.0 | 0.00 | 0.00 | 0.00 | 58 | 1012.2 |
| 20260502152205 | 64 | 286 | 5.2 | 7.8 | 0.00 | 0.00 | 0.00 | 60 | 1012.7 |
| 20260502151706 | 64 | 316 | 5.2 | 10.4 | 0.00 | 0.00 | 0.00 | 60 | 1012.7 |
| 20260502151206 | 63 | 309 | 6.1 | 10.4 | 0.00 | 0.00 | 0.00 | 60 | 1012.8 |
| 20260502130707 | 61 | 309 | 9.6 | 12.2 | 0.00 | 0.00 | 0.00 | 65 | 1013.4 |
| 20260502130206 | 61 | 309 | 8.7 | 13.0 | 0.00 | 0.00 | 0.00 | 66 | 1013.5 |
| 20260502123706 | 61 | 290 | 7.0 | 11.3 | 0.00 | 0.00 | 0.00 | 65 | 1013.7 |
| 20260502123205 | 62 | 283 | 8.7 | 13.0 | 0.00 | 0.00 | 0.00 | 64 | 1013.8 |
| 20260502122706 | 62 | 277 | 7.8 | 10.4 | 0.00 | 0.00 | 0.00 | 66 | 1013.8 |
| 20260502122206 | 62 | 296 | 6.1 | 11.3 | 0.00 | 0.00 | 0.00 | 66 | 1013.7 |
| 20260502121705 | 61 | 316 | 6.1 | 12.2 | 0.00 | 0.00 | 0.00 | 66 | 1013.7 |
| 20260502121206 | 61 | 316 | 6.1 | 12.2 | 0.00 | 0.00 | 0.00 | 66 | 1013.8 |
| 20260502120707 | 62 | 312 | 8.7 | 14.8 | 0.00 | 0.00 | 0.00 | 66 | 1013.8 |
| 20260502120207 | 62 | 327 | 10.4 | 17.4 | 0.00 | 0.00 | 0.00 | 66 | 1013.8 |
| 20260502115707 | 61 | 330 | 6.1 | 14.8 | 0.00 | 0.00 | 0.00 | 67 | 1013.8 |
| 20260502115206 | 61 | 318 | 10.4 | 14.8 | 0.00 | 0.00 | 0.00 | 68 | 1013.7 |
| 20260502114705 | 60 | 334 | 8.7 | 15.6 | 0.00 | 0.00 | 0.00 | 69 | 1013.7 |
| 20260502114206 | 60 | 307 | 8.7 | 12.2 | 0.00 | 0.00 | 0.00 | 69 | 1013.7 |
| 20260502113706 | 60 | 329 | 6.1 | 12.2 | 0.00 | 0.00 | 0.00 | 70 | 1013.8 |
| 20260502113205 | 60 | 305 | 7.8 | 11.3 | 0.00 | 0.00 | 0.00 | 70 | 1013.9 |
| 20260502112205 | 61 | 284 | 7.0 | 13.0 | 0.00 | 0.00 | 0.00 | 68 | 1013.9 |
| 20260502111706 | 61 | 301 | 7.0 | 13.0 | 0.00 | 0.00 | 0.00 | 70 | 1013.8 |
| 20260502110706 | 60 | 236 | 5.2 | 10.4 | 0.00 | 0.00 | 0.00 | 70 | 1014.1 |
| 20260502110206 | 60 | 266 | 7.8 | 10.4 | 0.00 | 0.00 | 0.00 | 71 | 1014.0 |
| 20260502105706 | 60 | 304 | 7.0 | 11.3 | 0.00 | 0.00 | 0.00 | 70 | 1014.0 |
| 20260502105205 | 60 | 291 | 6.1 | 12.2 | 0.00 | 0.00 | 0.00 | 71 | 1014.1 |
| 20260502104706 | 60 | 312 | 7.8 | 15.6 | 0.00 | 0.00 | 0.00 | 73 | 1014.0 |
| 20260502104205 | 59 | 295 | 6.1 | 10.4 | 0.00 | 0.00 | 0.00 | 73 | 1014.0 |
| 20260502103706 | 59 | 254 | 7.8 | 10.4 | 0.00 | 0.00 | 0.00 | 73 | 1014.0 |
| 20260502103206 | 59 | 294 | 7.8 | 13.0 | 0.00 | 0.00 | 0.00 | 73 | 1014.0 |
| 20260502102206 | 59 | 295 | 7.8 | 12.2 | 0.00 | 0.00 | 0.00 | 74 | 1014.1 |
| 20260502101206 | 58 | 309 | 7.8 | 12.2 | 0.00 | 0.00 | 0.00 | 75 | 1014.1 |
| 20260502100706 | 58 | 295 | 8.7 | 12.2 | 0.00 | 0.00 | 0.00 | 75 | 1014.1 |
| 20260502100206 | 58 | 279 | 8.7 | 12.2 | 0.00 | 0.00 | 0.00 | 76 | 1014.2 |
| 20260502091205 | 55 | 284 | 12.2 | 17.4 | 0.00 | 0.00 | 0.00 | 79 | 1014.4 |
| 20260502090707 | 55 | 296 | 11.3 | 17.4 | 0.00 | 0.00 | 0.00 | 78 | 1014.5 |
| 20260502090205 | 55 | 284 | 11.3 | 20.9 | 0.00 | 0.00 | 0.00 | 79 | 1014.4 |
| 20260502071205 | 52 | 294 | 13.9 | 20.0 | 0.00 | 0.00 | 0.00 | 83 | 1014.1 |
| 20260502070706 | 52 | 291 | 11.3 | 18.2 | 0.00 | 0.00 | 0.00 | 83 | 1014.2 |
| 20260502070206 | 52 | 298 | 11.3 | 18.2 | 0.00 | 0.00 | 0.00 | 84 | 1014.1 |
| 20260502065206 | 51 | 294 | 11.3 | 17.4 | 0.00 | 0.00 | 0.00 | 84 | 1014.2 |
| 20260502064706 | 51 | 297 | 9.6 | 15.6 | 0.00 | 0.00 | 0.00 | 83 | 1014.2 |
| 20260502063706 | 51 | 279 | 9.6 | 17.4 | 0.00 | 0.00 | 0.00 | 84 | 1014.3 |
| 20260502063206 | 51 | 299 | 9.6 | 13.0 | 0.00 | 0.00 | 0.00 | 84 | 1014.4 |
| 20260502062205 | 51 | 288 | 8.7 | 13.9 | 0.00 | 0.00 | 0.00 | 85 | 1014.5 |
| 20260502061706 | 51 | 285 | 7.8 | 11.3 | 0.00 | 0.00 | 0.00 | 85 | 1014.5 |
| 20260502061205 | 50 | 276 | 6.1 | 8.7 | 0.00 | 0.00 | 0.00 | 86 | 1014.5 |
| 20260502060706 | 50 | 300 | 5.2 | 10.4 | 0.00 | 0.00 | 0.00 | 86 | 1014.6 |
| 20260502060205 | 50 | 278 | 5.2 | 8.7 | 0.00 | 0.00 | 0.00 | 86 | 1014.6 |
| 20260502055706 | 50 | 270 | 4.3 | 8.7 | 0.00 | 0.00 | 0.00 | 87 | 1014.6 |
| 20260502055205 | 50 | 256 | 5.2 | 7.8 | 0.00 | 0.00 | 0.00 | 87 | 1014.6 |
| 20260502054706 | 49 | 231 | 6.1 | 8.7 | 0.00 | 0.00 | 0.00 | 88 | 1014.6 |
| 20260502054206 | 49 | 227 | 5.2 | 7.8 | 0.00 | 0.00 | 0.00 | 88 | 1014.6 |
| 20260502052705 | 48 | 235 | 2.6 | 5.2 | 0.00 | 0.00 | 0.00 | 88 | 1014.7 |
| 20260502052206 | 48 | 178 | 0.9 | 2.6 | 0.00 | 0.00 | 0.00 | 88 | 1014.7 |
| 20260502051705 | 48 | 137 | 0.9 | 2.6 | 0.00 | 0.00 | 0.00 | 88 | 1014.6 |
| 20260502050705 | 48 | 202 | 1.7 | 2.6 | 0.00 | 0.00 | 0.00 | 88 | 1014.7 |
| 20260502050206 | 48 | 226 | 1.7 | 5.2 | 0.00 | 0.00 | 0.00 | 88 | 1014.7 |
| 20260502045705 | 48 | 181 | 2.6 | 7.0 | 0.00 | 0.00 | 0.00 | 88 | 1014.7 |
| 20260502045205 | 47 | 186 | 1.7 | 5.2 | 0.00 | 0.00 | 0.00 | 88 | 1014.7 |
| 20260502044705 | 48 | 170 | 0.0 | 1.7 | 0.00 | 0.00 | 0.00 | 87 | 1014.7 |
| 20260502044205 | 48 | 175 | 1.7 | 4.3 | 0.00 | 0.00 | 0.00 | 87 | 1014.7 |
| 20260502043706 | 48 | 159 | 3.5 | 7.0 | 0.00 | 0.00 | 0.00 | 87 | 1014.7 |
| 20260502043205 | 48 | 197 | 4.3 | 7.8 | 0.00 | 0.00 | 0.00 | 87 | 1014.6 |
| 20260502042705 | 48 | 232 | 4.3 | 7.0 | 0.00 | 0.00 | 0.00 | 87 | 1014.7 |
| 20260502042205 | 48 | 233 | 4.3 | 8.7 | 0.00 | 0.00 | 0.00 | 87 | 1014.7 |
| 20260502041705 | 49 | 252 | 4.3 | 6.1 | 0.00 | 0.00 | 0.00 | 87 | 1014.8 |
| 20260502041205 | 49 | 249 | 6.1 | 10.4 | 0.00 | 0.00 | 0.00 | 87 | 1014.9 |
| 20260502040705 | 49 | 248 | 4.3 | 8.7 | 0.00 | 0.00 | 0.00 | 86 | 1014.8 |
| 20260502040205 | 49 | 228 | 6.1 | 8.7 | 0.00 | 0.00 | 0.00 | 86 | 1014.9 |
| 20260502035705 | 49 | 230 | 4.3 | 5.2 | 0.00 | 0.00 | 0.00 | 86 | 1014.9 |
| 20260502034705 | 49 | 237 | 2.6 | 5.2 | 0.00 | 0.00 | 0.00 | 85 | 1015.0 |
| 20260502034205 | 50 | 248 | 1.7 | 7.0 | 0.00 | 0.00 | 0.00 | 85 | 1015.0 |
| 20260502033705 | 50 | 252 | 4.3 | 8.7 | 0.00 | 0.00 | 0.00 | 85 | 1014.9 |
| 20260502032705 | 50 | 291 | 3.5 | 5.2 | 0.00 | 0.00 | 0.00 | 86 | 1014.9 |
| 20260502032205 | 50 | 239 | 3.5 | 5.2 | 0.00 | 0.00 | 0.00 | 86 | 1014.8 |
| 20260502031705 | 50 | 239 | 2.6 | 6.1 | 0.00 | 0.00 | 0.00 | 86 | 1014.8 |
| 20260502031205 | 50 | 212 | 3.5 | 6.1 | 0.00 | 0.00 | 0.00 | 86 | 1014.8 |
| 20260502030706 | 50 | 230 | 2.6 | 6.1 | 0.00 | 0.00 | 0.00 | 86 | 1014.9 |
| 20260502030205 | 51 | 260 | 2.6 | 4.3 | 0.00 | 0.00 | 0.00 | 86 | 1014.8 |
| 20260502025705 | 51 | 229 | 1.7 | 4.3 | 0.00 | 0.00 | 0.00 | 86 | 1014.9 |
| 20260502025205 | 51 | 218 | 1.7 | 4.3 | 0.00 | 0.00 | 0.00 | 86 | 1014.9 |
| 20260502024705 | 51 | 202 | 2.6 | 4.3 | 0.00 | 0.00 | 0.00 | 87 | 1015.1 |
| 20260502023705 | 51 | 289 | 3.5 | 6.1 | 0.00 | 0.00 | 0.00 | 87 | 1015.1 |
| 20260502023205 | 51 | 235 | 4.3 | 7.8 | 0.00 | 0.00 | 0.00 | 88 | 1015.1 |
| 20260502022705 | 51 | 229 | 1.7 | 6.1 | 0.00 | 0.00 | 0.00 | 89 | 1015.2 |
| 20260502021705 | 52 | 222 | 4.3 | 6.1 | 0.00 | 0.00 | 0.00 | 89 | 1015.3 |
| 20260502021205 | 52 | 166 | 0.9 | 5.2 | 0.00 | 0.00 | 0.00 | 89 | 1015.3 |
| 20260502020205 | 52 | 215 | 0.9 | 2.6 | 0.00 | 0.00 | 0.00 | 88 | 1015.4 |
| 20260502015705 | 52 | 200 | 0.9 | 2.6 | 0.00 | 0.00 | 0.00 | 88 | 1015.4 |
| 20260502015205 | 52 | 231 | 0.9 | 4.3 | 0.00 | 0.00 | 0.00 | 88 | 1015.4 |
| 20260502014705 | 52 | 216 | 1.7 | 6.1 | 0.00 | 0.00 | 0.00 | 88 | 1015.4 |
| 20260502014205 | 52 | 320 | 0.9 | 2.6 | 0.00 | 0.00 | 0.00 | 87 | 1015.4 |
| 20260502013705 | 52 | 334 | 2.6 | 5.2 | 0.00 | 0.00 | 0.00 | 87 | 1015.5 |
| 20260502012705 | 53 | 257 | 3.5 | 5.2 | 0.00 | 0.00 | 0.00 | 86 | 1015.6 |
| 20260502012205 | 53 | 288 | 0.9 | 4.3 | 0.00 | 0.00 | 0.00 | 86 | 1015.7 |
| 20260502011705 | 53 | 345 | 2.6 | 7.0 | 0.00 | 0.00 | 0.00 | 86 | 1015.8 |
| 20260502011204 | 53 | 346 | 2.6 | 7.0 | 0.00 | 0.00 | 0.00 | 86 | 1015.8 |
| 20260502010705 | 53 | 0 | 1.7 | 10.4 | 0.00 | 0.00 | 0.00 | 86 | 1015.9 |
| 20260502010205 | 53 | 44 | 0.9 | 10.4 | 0.00 | 0.00 | 0.00 | 85 | 1015.9 |
| 20260502005705 | 53 | 63 | 2.6 | 5.2 | 0.00 | 0.00 | 0.00 | 85 | 1016.0 |
| 20260502005205 | 54 | 64 | 1.7 | 4.3 | 0.00 | 0.00 | 0.00 | 85 | 1015.9 |
| 20260502004705 | 54 | 30 | 1.7 | 2.6 | 0.00 | 0.00 | 0.00 | 85 | 1015.9 |
| 20260502004205 | 54 | 44 | 1.7 | 5.2 | 0.00 | 0.00 | 0.00 | 85 | 1015.9 |
| 20260502003705 | 54 | 249 | 6.1 | 11.3 | 0.00 | 0.00 | 0.00 | 85 | 1015.9 |
| 20260502003205 | 54 | 245 | 2.6 | 5.2 | 0.00 | 0.00 | 0.00 | 84 | 1016.0 |
| 20260502002205 | 54 | 36 | 0.9 | 7.0 | 0.00 | 0.00 | 0.00 | 83 | 1016.0 |
| 20260502001705 | 54 | 230 | 0.9 | 2.6 | 0.00 | 0.00 | 0.00 | 83 | 1016.1 |
| 20260502001205 | 54 | 62 | 4.3 | 6.1 | 0.00 | 0.00 | 0.00 | 83 | 1016.1 |
| 20260502000705 | 54 | 180 | 1.7 | 6.1 | 0.00 | 0.00 | 0.00 | 82 | 1016.1 |
| 20260502000205 | 54 | 180 | 1.7 | 5.2 | 0.00 | 0.00 | 0.00 | 81 | 1016.2 |
| 20260501235705 | 54 | 70 | 0.9 | 4.3 | 0.00 | 0.00 | 0.00 | 81 | 1016.2 |
| 20260501234206 | 55 | 341 | 4.3 | 7.0 | 0.00 | 0.00 | 0.00 | 79 | 1016.2 |
| 20260501233705 | 55 | 349 | 5.2 | 8.7 | 0.00 | 0.00 | 0.00 | 79 | 1016.2 |
| 20260501233205 | 55 | 296 | 4.3 | 7.0 | 0.00 | 0.00 | 0.00 | 78 | 1016.3 |
| 20260501232705 | 55 | 328 | 2.6 | 4.3 | 0.00 | 0.00 | 0.00 | 78 | 1016.3 |
| 20260501232205 | 55 | 203 | 2.6 | 6.1 | 0.00 | 0.00 | 0.00 | 77 | 1016.4 |
| 20260501231205 | 55 | 0 | 0.9 | 1.7 | 0.00 | 0.00 | 0.00 | 76 | 1016.3 |
| 20260501230712 | 55 | 359 | 0.0 | 1.7 | 0.00 | 0.00 | 0.00 | 75 | 1016.4 |
| 20260501230205 | 55 | 341 | 0.0 | 1.7 | 0.00 | 0.00 | 0.00 | 75 | 1016.3 |
| 20260501225705 | 55 | 340 | 0.9 | 1.7 | 0.00 | 0.00 | 0.00 | 75 | 1016.4 |
| 20260501224205 | 55 | 53 | 1.7 | 6.1 | 0.00 | 0.00 | 0.00 | 75 | 1016.4 |
| 20260501223704 | 56 | 108 | 0.0 | 1.7 | 0.00 | 0.00 | 0.00 | 74 | 1016.4 |
| 20260501223205 | 56 | 135 | 1.7 | 2.6 | 0.00 | 0.00 | 0.00 | 74 | 1016.4 |
| 20260501222705 | 56 | 47 | 0.0 | 2.6 | 0.00 | 0.00 | 0.00 | 74 | 1016.4 |
| 20260501222205 | 56 | 78 | 0.9 | 2.6 | 0.00 | 0.00 | 0.00 | 73 | 1016.4 |
| 20260501221704 | 56 | 331 | 0.9 | 4.3 | 0.00 | 0.00 | 0.00 | 73 | 1016.5 |
| 20260501221205 | 56 | 242 | 2.6 | 5.2 | 0.00 | 0.00 | 0.00 | 73 | 1016.5 |
| 20260501220705 | 56 | 181 | 0.9 | 2.6 | 0.00 | 0.00 | 0.00 | 73 | 1016.5 |
| 20260501215704 | 56 | 105 | 1.7 | 5.2 | 0.00 | 0.00 | 0.00 | 72 | 1016.5 |
| 20260501215205 | 56 | 117 | 0.0 | 2.6 | 0.00 | 0.00 | 0.00 | 72 | 1016.6 |
| 20260501214704 | 56 | 99 | 1.7 | 2.6 | 0.00 | 0.00 | 0.00 | 72 | 1016.5 |
| 20260501214205 | 56 | 105 | 0.0 | 0.9 | 0.00 | 0.00 | 0.00 | 71 | 1016.5 |
| 20260501213706 | 56 | 103 | 1.7 | 5.2 | 0.00 | 0.00 | 0.00 | 71 | 1016.4 |
| 20260501213205 | 56 | 34 | 0.9 | 5.2 | 0.00 | 0.00 | 0.00 | 71 | 1016.5 |
| 20260501212705 | 56 | 241 | 2.6 | 6.1 | 0.00 | 0.00 | 0.00 | 71 | 1016.4 |
| 20260501211705 | 57 | 301 | 2.6 | 6.1 | 0.00 | 0.00 | 0.00 | 70 | 1016.3 |
| 20260501211205 | 57 | 290 | 4.3 | 6.1 | 0.00 | 0.00 | 0.00 | 69 | 1016.3 |
| 20260501210705 | 57 | 271 | 2.6 | 6.1 | 0.00 | 0.00 | 0.00 | 69 | 1016.4 |
| 20260501210205 | 57 | 337 | 4.3 | 7.0 | 0.00 | 0.00 | 0.00 | 69 | 1016.4 |
| 20260501205706 | 58 | 303 | 4.3 | 7.0 | 0.00 | 0.00 | 0.00 | 69 | 1016.4 |
| 20260501204706 | 58 | 321 | 6.1 | 10.4 | 0.00 | 0.00 | 0.00 | 68 | 1016.5 |
| 20260501204206 | 58 | 326 | 5.2 | 10.4 | 0.00 | 0.00 | 0.00 | 67 | 1016.5 |
| 20260501203706 | 59 | 331 | 6.1 | 12.2 | 0.00 | 0.00 | 0.00 | 67 | 1016.5 |
| 20260501203206 | 59 | 307 | 6.1 | 10.4 | 0.00 | 0.00 | 0.00 | 67 | 1016.6 |
| 20260501202706 | 59 | 308 | 4.3 | 7.0 | 0.00 | 0.00 | 0.00 | 68 | 1016.5 |
| 20260501202206 | 60 | 322 | 3.5 | 7.0 | 0.00 | 0.00 | 0.00 | 69 | 1016.5 |
| 20260501201706 | 60 | 323 | 0.9 | 2.6 | 0.00 | 0.00 | 0.00 | 70 | 1016.5 |
| 20260501201206 | 61 | 104 | 0.9 | 2.6 | 0.00 | 0.00 | 0.00 | 70 | 1016.6 |
| 20260501200707 | 61 | 280 | 0.0 | 0.9 | 0.00 | 0.00 | 0.00 | 69 | 1016.6 |
| 20260501200206 | 61 | 281 | 0.9 | 1.7 | 0.00 | 0.00 | 0.00 | 69 | 1016.5 |
| 20260501195706 | 61 | 281 | 2.6 | 4.3 | 0.00 | 0.00 | 0.00 | 68 | 1016.5 |
| 20260501195206 | 61 | 251 | 2.6 | 4.3 | 0.00 | 0.00 | 0.00 | 68 | 1016.5 |
| 20260501194706 | 61 | 258 | 0.9 | 2.6 | 0.00 | 0.00 | 0.00 | 67 | 1016.5 |
| 20260501194206 | 61 | 209 | 2.6 | 4.3 | 0.00 | 0.00 | 0.00 | 66 | 1016.4 |
| 20260501193706 | 61 | 196 | 3.5 | 5.2 | 0.00 | 0.00 | 0.00 | 65 | 1016.4 |
| 20260501193206 | 62 | 207 | 1.7 | 4.3 | 0.00 | 0.00 | 0.00 | 65 | 1016.3 |
| 20260501192206 | 62 | 219 | 2.6 | 6.1 | 0.00 | 0.00 | 0.00 | 63 | 1016.3 |
| 20260501191707 | 62 | 288 | 4.3 | 6.1 | 0.00 | 0.00 | 0.00 | 64 | 1016.2 |
| 20260501191206 | 62 | 283 | 2.6 | 4.3 | 0.00 | 0.00 | 0.00 | 65 | 1016.3 |
| 20260501190706 | 62 | 242 | 3.5 | 5.2 | 0.00 | 0.00 | 0.00 | 65 | 1016.2 |
| 20260501190206 | 62 | 246 | 4.3 | 5.2 | 0.00 | 0.00 | 0.00 | 64 | 1016.2 |
| 20260501185706 | 63 | 243 | 2.6 | 4.3 | 0.00 | 0.00 | 0.00 | 63 | 1016.2 |
| 20260501185206 | 63 | 236 | 3.5 | 5.2 | 0.00 | 0.00 | 0.00 | 62 | 1016.1 |
| 20260501184206 | 63 | 245 | 5.2 | 7.0 | 0.00 | 0.00 | 0.00 | 62 | 1016.0 |
| 20260501183706 | 63 | 236 | 4.3 | 5.2 | 0.00 | 0.00 | 0.00 | 62 | 1016.1 |
| 20260501183205 | 64 | 226 | 1.7 | 2.6 | 0.00 | 0.00 | 0.00 | 61 | 1016.0 |
| 20260501182706 | 64 | 248 | 0.9 | 2.6 | 0.00 | 0.00 | 0.00 | 60 | 1016.0 |
| 20260501182207 | 64 | 186 | 1.7 | 2.6 | 0.00 | 0.00 | 0.00 | 59 | 1016.0 |
| 20260501181707 | 64 | 162 | 2.6 | 5.2 | 0.00 | 0.00 | 0.00 | 60 | 1016.0 |
| 20260501181206 | 64 | 186 | 2.6 | 4.3 | 0.00 | 0.00 | 0.00 | 60 | 1016.1 |
| 20260501180706 | 65 | 196 | 2.6 | 5.2 | 0.00 | 0.00 | 0.00 | 60 | 1016.1 |
| 20260501180207 | 65 | 177 | 2.6 | 5.2 | 0.00 | 0.00 | 0.00 | 59 | 1016.2 |
| 20260501175706 | 66 | 159 | 2.6 | 6.1 | 0.00 | 0.00 | 0.00 | 58 | 1016.2 |
| 20260501175207 | 67 | 159 | 3.5 | 7.8 | 0.00 | 0.00 | 0.00 | 57 | 1016.2 |
| 20260501174707 | 68 | 164 | 4.3 | 8.7 | 0.00 | 0.00 | 0.00 | 55 | 1016.2 |
| 20260501174206 | 68 | 156 | 1.7 | 2.6 | 0.00 | 0.00 | 0.00 | 54 | 1016.1 |
| 20260501171706 | 70 | 206 | 5.2 | 10.4 | 0.00 | 0.00 | 0.00 | 50 | 1016.2 |
| 20260501165707 | 70 | 221 | 5.2 | 7.8 | 0.00 | 0.00 | 0.00 | 51 | 1016.2 |
| 20260501165206 | 70 | 218 | 6.1 | 10.4 | 0.00 | 0.00 | 0.00 | 49 | 1016.2 |
| 20260501164207 | 70 | 207 | 7.0 | 10.4 | 0.00 | 0.00 | 0.00 | 47 | 1016.3 |
| 20260501163707 | 71 | 222 | 4.3 | 8.7 | 0.00 | 0.00 | 0.00 | 48 | 1016.3 |
| 20260501163207 | 71 | 201 | 7.0 | 10.4 | 0.00 | 0.00 | 0.00 | 47 | 1016.2 |
| 20260501162707 | 71 | 184 | 5.2 | 10.4 | 0.00 | 0.00 | 0.00 | 47 | 1016.2 |
| 20260501161707 | 70 | 200 | 6.1 | 10.4 | 0.00 | 0.00 | 0.00 | 46 | 1016.2 |